Location: Helsinki
(60.1699°N, 24.9384°E)
Time: 23:59:52
(UTC+02:00)

Transit 4A - Pass Details

Date: 27 October 2020
Orbit: 862 x 982 km, 66.8° (Epoch: 25 November)

Event Time Altitude Azimuth Distance (km) Brightness Sun altitude
Rises 20:45:27 0° 289° (WNW) 3,676 12.1 -30.7°
Reaches altitude 10° 20:48:07 10° 295° (WNW) 2,737 11.2 -31.0°
Maximum altitude 20:54:21 49° 10° (N) 1,248 8.6 -31.7°
Enters shadow 20:54:35 49° 17° (NNE) 1,251 8.5 -31.7°
